User: anonymous   Login
Location: Newark
(60.1950°N, 25.0308°E)
Time: 14:33:18
(UTC+00:00)
Language:

LO-87 - Orbit

View from above orbital plane
View from above orbital plane
View from above satellite
View from above satellite

Ground track
Ground track

The orbit data is extracted from the following two-line orbital elements,

1 41557U 16033B   19338.87404146 +.00000876 +00000-0 +35150-4 0  9992
2 41557 097.4130 065.3744 0015129 063.5876 296.6914 15.27576766195914
Epoch (UTC): 04 December 2019 20:58:37
Eccentricity: 0.0015129
inclination: 97.4130°
perigee height: 472 km
apogee height: 493 km
right ascension of ascending node: 65.3744°
argument of perigee: 63.5876°
revolutions per day: 15.27576766
mean anomaly at epoch: 296.6914°
orbit number at epoch: 19591

The dashed part of the orbit path shows where the satellite is in the earth's shadow,  

DLR